Weather History for KAKO - March, 2012

Change the Weather History Date:

Saturday, March 24, 2012

  Actual Average Record
Temperature  
Mean Temperature 54 °F 41 °F  
Max Temperature 69 °F 55 °F 76 °F (2004)
Min Temperature 38 °F 28 °F 0 °F (1965)
Degree Days  
Heating Degree Days 11    
Month to date heating degree days 454  
Cooling Degree Days 0    
Month to date cooling degree days 0  
Growing Degree Days 4 (Base 50)    
Moisture  
Dew Point 35 °F    
Average Humidity 57    
Maximum Humidity 83    
Minimum Humidity 31    
Precipitation  
Precipitation 0.00 in 0.03 in 0.79 in (1941)
Month to date precipitation 0.11 0.62  
Year to date precipitation 1.36  
Sea Level Pressure  
Sea Level Pressure 29.97 in    
Wind  
Wind Speed 13 mph (NNE)    
Max Wind Speed 25 mph    
Max Gust Speed 31 mph    
Visibility 10 miles    
Events      
T = Trace of Precipitation, MM = Missing Value Source: NWS Daily Summary

Daily Weather History Graph

Daily Weather History Graph

Search for Another Location

Airport or City:

Trip Planner

Search our weather history database for the weather conditions in past years. The results will help you decide how hot, cold, wet, or windy it might be!

Date:

Astronomy

Mar. 24, 2012 Rise Set
Actual Time 6:48 AM MDT 7:09 PM MDT
Civil Twilight 6:21 AM MDT 7:36 PM MDT
Nautical Twilight 5:49 AM MDT 8:08 PM MDT
Astronomical Twilight 5:17 AM MDT 8:41 PM MDT
Moon 7:28 AM MDT (3/24) 9:31 PM MDT (3/24)
Length of Visible Light 13h 15m
Length of Day
12h 20m
Waxing Crescent, 4% of the Moon is Illuminated
Mar 24
Waxing Crescent
Mar 30
First Quarter
Apr 6
Full
Apr 13
Last Quarter
Apr 21
New

Hourly Weather History & Observations

Time (MDT) Temp. Windchill Dew Point Humidity Pressure Visibility Wind Dir Wind Speed Gust Speed Precip Events Conditions
12:53 AM 50.0 °F - 33.1 °F 52% 29.88 in 10.0 mi SSW 12.7 mph - N/A   Clear
1:53 AM 51.1 °F - 30.9 °F 46% 29.87 in 10.0 mi SW 13.8 mph - N/A   Clear
2:53 AM 43.0 °F 37.7 °F 32.0 °F 65% 29.89 in 10.0 mi West 9.2 mph - N/A   Clear
3:53 AM 41.0 °F 35.2 °F 32.0 °F 70% 29.89 in 10.0 mi West 9.2 mph - N/A   Clear
4:53 AM 42.1 °F 36.6 °F 33.1 °F 70% 29.90 in 10.0 mi West 9.2 mph - N/A   Clear
5:53 AM 43.0 °F 37.7 °F 32.0 °F 65% 29.91 in 10.0 mi West 9.2 mph - N/A   Clear
6:53 AM 45.0 °F 39.3 °F 30.9 °F 58% 29.94 in 10.0 mi WNW 11.5 mph - N/A   Clear
7:53 AM 45.0 °F 40.1 °F 32.0 °F 60% 29.99 in 10.0 mi NW 9.2 mph - N/A   Clear
8:53 AM 50.0 °F - 30.9 °F 48% 30.00 in 10.0 mi WNW 12.7 mph - N/A   Clear
9:53 AM 59.0 °F - 30.0 °F 33% 29.99 in 10.0 mi North 20.7 mph - N/A   Clear
10:53 AM 62.1 °F - 33.1 °F 34% 29.99 in 10.0 mi North 20.7 mph - N/A   Clear
11:53 AM 64.9 °F - 34.0 °F 32% 29.99 in 10.0 mi NNE 19.6 mph - N/A   Clear
12:53 PM 66.0 °F - 37.0 °F 34% 29.99 in 10.0 mi NE 16.1 mph - N/A   Clear
1:53 PM 68.0 °F - 37.0 °F 32% 29.97 in 10.0 mi NE 18.4 mph 26.5 mph N/A   Clear
2:53 PM 68.0 °F - 37.0 °F 32% 29.98 in 10.0 mi NE 17.3 mph 23.0 mph N/A   Clear
4:53 PM 68.0 °F - 37.9 °F 33% 29.99 in 10.0 mi East 11.5 mph 19.6 mph N/A   Clear
5:53 PM 66.0 °F - 37.9 °F 36% 29.98 in 10.0 mi ENE 13.8 mph 20.7 mph N/A   Clear
6:53 PM 60.1 °F - 37.9 °F 44% 30.00 in 10.0 mi ENE 10.4 mph - N/A   Clear
7:53 PM 54.0 °F - 39.9 °F 59% 30.03 in 10.0 mi NE 10.4 mph - N/A   Clear
8:53 PM 52.0 °F - 41.0 °F 66% 30.05 in 10.0 mi ENE 10.4 mph - N/A   Clear
9:53 PM 48.9 °F - 41.0 °F 74% 30.05 in 10.0 mi East 11.5 mph - N/A   Clear
10:53 PM 46.9 °F - 41.0 °F 80% 30.04 in 10.0 mi East 11.5 mph - N/A   Clear
11:53 PM 44.1 °F 39.0 °F 39.9 °F 85% 30.04 in 10.0 mi East 9.2 mph - N/A   Clear